| time (UTC) | temp F | wind direction | speed MPH | gust MPH | rain 1hr in | rain 24hr in | rain mn in | humidity % | barometer mb |
| 20260504040510 | 53 | 294 | 0.0 | 2.0 | 0.00 | 0.00 | 0.00 | 87 | 1022.3 |
| 20260504040006 | 52 | 165 | 0.0 | 1.0 | 0.00 | 0.01 | 0.01 | 87 | 1022.1 |
| 20260504035503 | 53 | 165 | 1.0 | 1.0 | 0.00 | 0.01 | 0.01 | 86 | 1022.1 |
| 20260504034959 | 53 | 106 | 0.0 | 1.0 | 0.00 | 0.01 | 0.01 | 85 | 1022.1 |
| 20260504034457 | 53 | 75 | 1.0 | 1.0 | 0.00 | 0.01 | 0.01 | 85 | 1022.1 |
| 20260504033954 | 53 | 96 | 1.0 | 1.0 | 0.00 | 0.01 | 0.01 | 84 | 1021.9 |
| 20260504033452 | 53 | 99 | 0.0 | 0.0 | 0.00 | 0.01 | 0.01 | 84 | 1022.1 |
| 20260504032949 | 53 | 126 | 0.0 | 0.0 | 0.00 | 0.01 | 0.01 | 83 | 1022.0 |
| 20260504032446 | 54 | 126 | 0.0 | 0.0 | 0.00 | 0.01 | 0.01 | 82 | 1022.2 |
| 20260504031942 | 54 | 126 | 0.0 | 0.0 | 0.00 | 0.01 | 0.01 | 82 | 1021.9 |
| 20260504031439 | 54 | 126 | 0.0 | 0.0 | 0.00 | 0.01 | 0.01 | 80 | 1021.9 |
| 20260504030936 | 55 | 126 | 0.0 | 0.0 | 0.00 | 0.01 | 0.01 | 80 | 1021.9 |
| 20260504030433 | 55 | 157 | 0.0 | 2.0 | 0.00 | 0.01 | 0.01 | 80 | 1022.0 |
| 20260504025929 | 55 | 157 | 1.0 | 2.0 | 0.00 | 0.01 | 0.01 | 80 | 1021.9 |
| 20260504025426 | 55 | 180 | 0.0 | 2.0 | 0.00 | 0.01 | 0.01 | 79 | 1022.0 |
| 20260504024923 | 55 | 160 | 0.0 | 1.0 | 0.00 | 0.01 | 0.01 | 79 | 1022.1 |
| 20260504024420 | 55 | 168 | 1.0 | 2.0 | 0.00 | 0.01 | 0.01 | 78 | 1021.8 |
| 20260504023917 | 55 | 165 | 0.0 | 0.0 | 0.00 | 0.01 | 0.01 | 78 | 1021.9 |
| 20260504023413 | 56 | 180 | 0.0 | 0.0 | 0.00 | 0.01 | 0.01 | 76 | 1021.9 |
| 20260504022909 | 56 | 180 | 0.0 | 0.0 | 0.00 | 0.01 | 0.01 | 75 | 1021.9 |
| 20260504022406 | 56 | 186 | 1.0 | 1.0 | 0.00 | 0.01 | 0.01 | 75 | 1021.9 |
| 20260504021902 | 56 | 188 | 0.0 | 0.0 | 0.00 | 0.01 | 0.01 | 75 | 1021.8 |
| 20260504021400 | 56 | 165 | 0.0 | 0.0 | 0.00 | 0.01 | 0.01 | 78 | 1021.9 |
| 20260504020857 | 56 | 165 | 0.0 | 0.0 | 0.00 | 0.01 | 0.01 | 78 | 1021.6 |
| 20260504020353 | 56 | 165 | 0.0 | 0.0 | 0.00 | 0.01 | 0.01 | 78 | 1021.4 |
| 20260504015849 | 57 | 165 | 0.0 | 0.0 | 0.00 | 0.01 | 0.01 | 77 | 1021.7 |
| 20260504015346 | 57 | 165 | 0.0 | 0.0 | 0.00 | 0.01 | 0.01 | 76 | 1021.7 |
| 20260504014842 | 58 | 165 | 0.0 | 1.0 | 0.00 | 0.01 | 0.01 | 75 | 1021.4 |
| 20260504014338 | 57 | 180 | 0.0 | 0.0 | 0.00 | 0.01 | 0.01 | 74 | 1021.3 |
| 20260504013836 | 57 | 180 | 0.0 | 0.0 | 0.00 | 0.01 | 0.01 | 73 | 1021.3 |
| 20260504013333 | 57 | 180 | 0.0 | 0.0 | 0.00 | 0.01 | 0.01 | 73 | 1021.3 |
| 20260504012830 | 58 | 180 | 0.0 | 0.0 | 0.00 | 0.01 | 0.01 | 74 | 1021.2 |
| 20260504012328 | 58 | 180 | 0.0 | 0.0 | 0.00 | 0.01 | 0.01 | 71 | 1021.1 |
| 20260504011825 | 59 | 180 | 0.0 | 0.0 | 0.00 | 0.01 | 0.01 | 72 | 1021.0 |
| 20260504011321 | 60 | 180 | 0.0 | 0.0 | 0.00 | 0.01 | 0.01 | 70 | 1021.0 |
| 20260504010817 | 60 | 180 | 0.0 | 0.0 | 0.00 | 0.01 | 0.01 | 69 | 1021.0 |
| 20260504010313 | 60 | 151 | 0.0 | 0.0 | 0.00 | 0.01 | 0.01 | 67 | 1020.9 |
| 20260504005810 | 61 | 151 | 0.0 | 0.0 | 0.00 | 0.01 | 0.01 | 65 | 1020.6 |
| 20260504005307 | 61 | 151 | 0.0 | 0.0 | 0.00 | 0.01 | 0.01 | 64 | 1020.9 |
| 20260504004804 | 61 | 151 | 0.0 | 0.0 | 0.00 | 0.01 | 0.01 | 58 | 1020.5 |
| 20260504004302 | 61 | 151 | 0.0 | 0.0 | 0.00 | 0.01 | 0.01 | 64 | 1020.6 |
| 20260504003758 | 62 | 151 | 0.0 | 0.0 | 0.00 | 0.01 | 0.01 | 62 | 1020.9 |
| 20260504003255 | 63 | 151 | 0.0 | 2.0 | 0.00 | 0.01 | 0.01 | 61 | 1020.4 |
| 20260504002751 | 63 | 0 | 0.0 | 0.0 | 0.00 | 0.01 | 0.01 | 55 | 1020.3 |
| 20260504002249 | 65 | 0 | 0.0 | 2.0 | 0.00 | 0.01 | 0.01 | 52 | 1020.4 |
| 20260504001746 | 65 | 0 | 2.0 | 2.0 | 0.00 | 0.01 | 0.01 | 52 | 1020.5 |
| 20260504001243 | 66 | 349 | 2.0 | 2.0 | 0.00 | 0.01 | 0.01 | 50 | 1020.5 |
| 20260504000740 | 66 | 0 | 0.0 | 0.0 | 0.00 | 0.01 | 0.01 | 48 | 1020.2 |
| 20260504000237 | 67 | 345 | 0.0 | 0.0 | 0.00 | 0.01 | 0.01 | 46 | 1020.5 |
| 20260503235735 | 68 | 345 | 0.0 | 0.0 | 0.00 | 0.01 | 0.01 | 44 | 1020.2 |
| 20260503235232 | 68 | 286 | 0.0 | 1.0 | 0.00 | 0.01 | 0.01 | 42 | 1020.2 |
| 20260503234730 | 69 | 270 | 1.0 | 2.0 | 0.00 | 0.01 | 0.01 | 42 | 1020.3 |
| 20260503234228 | 69 | 286 | 0.0 | 3.0 | 0.00 | 0.01 | 0.01 | 40 | 1020.3 |
| 20260503233725 | 70 | 263 | 0.0 | 1.0 | 0.00 | 0.01 | 0.01 | 39 | 1020.2 |
| 20260503233219 | 71 | 250 | 2.0 | 3.0 | 0.00 | 0.01 | 0.01 | 38 | 1020.5 |
| 20260503232717 | 73 | 266 | 3.0 | 3.0 | 0.00 | 0.01 | 0.01 | 37 | 1020.0 |
| 20260503232214 | 74 | 173 | 0.0 | 3.0 | 0.00 | 0.01 | 0.01 | 37 | 1020.3 |
| 20260503231713 | 75 | 236 | 0.0 | 2.0 | 0.00 | 0.01 | 0.01 | 39 | 1020.3 |
| 20260503231209 | 73 | 247 | 3.0 | 4.0 | 0.00 | 0.01 | 0.01 | 36 | 1020.4 |
| 20260503230705 | 74 | 306 | 0.0 | 3.0 | 0.00 | 0.01 | 0.01 | 37 | 1020.3 |
| 20260503230203 | 74 | 313 | 3.0 | 4.0 | 0.00 | 0.01 | 0.01 | 39 | 1020.2 |
| 20260503225700 | 73 | 303 | 2.0 | 5.0 | 0.00 | 0.01 | 0.01 | 38 | 1020.4 |
| 20260503225159 | 73 | 261 | 2.0 | 5.0 | 0.00 | 0.01 | 0.01 | 39 | 1020.3 |
| 20260503224657 | 73 | 294 | 0.0 | 7.0 | 0.00 | 0.01 | 0.01 | 39 | 1020.6 |
| 20260503224155 | 74 | 292 | 2.0 | 4.0 | 0.00 | 0.01 | 0.01 | 38 | 1020.4 |
| 20260503223653 | 73 | 270 | 4.0 | 7.0 | 0.00 | 0.01 | 0.01 | 37 | 1020.5 |
| 20260503223149 | 75 | 203 | 1.0 | 2.0 | 0.00 | 0.01 | 0.01 | 38 | 1020.4 |
| 20260503222646 | 73 | 315 | 4.0 | 7.0 | 0.00 | 0.01 | 0.01 | 37 | 1020.6 |
| 20260503222144 | 74 | 257 | 1.0 | 4.0 | 0.00 | 0.01 | 0.01 | 38 | 1020.5 |
| 20260503221642 | 75 | 315 | 2.0 | 4.0 | 0.00 | 0.01 | 0.01 | 39 | 1020.5 |
| 20260503221139 | 76 | 293 | 4.0 | 4.0 | 0.00 | 0.01 | 0.01 | 38 | 1020.4 |
| 20260503220636 | 75 | 270 | 5.0 | 5.0 | 0.00 | 0.01 | 0.01 | 38 | 1020.5 |
| 20260503220132 | 75 | 237 | 2.0 | 5.0 | 0.00 | 0.01 | 0.01 | 36 | 1020.4 |
| 20260503215630 | 74 | 45 | 0.0 | 3.0 | 0.00 | 0.01 | 0.01 | 38 | 1020.6 |
| 20260503215126 | 73 | 255 | 3.0 | 5.0 | 0.00 | 0.01 | 0.01 | 38 | 1020.6 |
| 20260503214625 | 74 | 338 | 6.0 | 6.0 | 0.00 | 0.01 | 0.01 | 38 | 1020.9 |
| 20260503214120 | 75 | 209 | 4.0 | 4.0 | 0.00 | 0.01 | 0.01 | 39 | 1020.6 |
| 20260503213614 | 75 | 140 | 4.0 | 5.0 | 0.00 | 0.01 | 0.01 | 40 | 1020.4 |
| 20260503213110 | 74 | 345 | 0.0 | 3.0 | 0.00 | 0.01 | 0.01 | 38 | 1020.5 |
| 20260503212608 | 75 | 270 | 0.0 | 3.0 | 0.00 | 0.01 | 0.01 | 38 | 1020.8 |
| 20260503212105 | 75 | 270 | 2.0 | 4.0 | 0.00 | 0.01 | 0.01 | 39 | 1020.6 |
| 20260503211603 | 76 | 294 | 0.0 | 3.0 | 0.00 | 0.01 | 0.01 | 42 | 1020.8 |
| 20260503211057 | 73 | 95 | 4.0 | 7.0 | 0.00 | 0.01 | 0.01 | 40 | 1020.9 |
| 20260503210554 | 74 | 324 | 2.0 | 5.0 | 0.00 | 0.01 | 0.01 | 39 | 1020.9 |
| 20260503210050 | 73 | 210 | 5.0 | 8.0 | 0.00 | 0.01 | 0.01 | 40 | 1020.6 |
| 20260503205547 | 73 | 272 | 5.0 | 7.0 | 0.00 | 0.01 | 0.01 | 41 | 1021.0 |
| 20260503205043 | 73 | 346 | 2.0 | 5.0 | 0.00 | 0.01 | 0.01 | 40 | 1020.9 |
| 20260503204541 | 74 | 244 | 5.0 | 6.0 | 0.00 | 0.01 | 0.01 | 39 | 1020.8 |
| 20260503204038 | 75 | 225 | 3.0 | 7.0 | 0.00 | 0.01 | 0.01 | 40 | 1021.0 |
| 20260503203535 | 74 | 241 | 4.0 | 7.0 | 0.00 | 0.01 | 0.01 | 38 | 1020.8 |
| 20260503203032 | 74 | 252 | 5.0 | 5.0 | 0.00 | 0.01 | 0.01 | 40 | 1021.2 |
| 20260503202530 | 72 | 223 | 7.0 | 7.0 | 0.00 | 0.01 | 0.01 | 42 | 1021.3 |
| 20260503202027 | 73 | 306 | 3.0 | 6.0 | 0.00 | 0.01 | 0.01 | 40 | 1021.1 |
| 20260503201526 | 73 | 318 | 3.0 | 6.0 | 0.00 | 0.01 | 0.01 | 40 | 1021.5 |
| 20260503201022 | 73 | 193 | 3.0 | 5.0 | 0.00 | 0.01 | 0.01 | 40 | 1021.3 |
| 20260503200518 | 72 | 123 | 2.0 | 5.0 | 0.00 | 0.01 | 0.01 | 39 | 1021.5 |
| 20260503200015 | 73 | 270 | 2.0 | 7.0 | 0.00 | 0.01 | 0.01 | 43 | 1021.6 |
| 20260503195513 | 73 | 138 | 3.0 | 3.0 | 0.00 | 0.01 | 0.01 | 39 | 1021.6 |
| 20260503195009 | 72 | 294 | 5.0 | 7.0 | 0.00 | 0.01 | 0.01 | 37 | 1021.5 |
| 20260503194506 | 71 | 57 | 0.0 | 3.0 | 0.00 | 0.01 | 0.01 | 39 | 1021.9 |
| 20260503194006 | 71 | 289 | 3.0 | 9.0 | 0.00 | 0.01 | 0.01 | 40 | 1021.8 |
| 20260503193503 | 71 | 64 | 3.0 | 6.0 | 0.00 | 0.01 | 0.01 | 40 | 1022.0 |
| 20260503192958 | 73 | 250 | 4.0 | 7.0 | 0.00 | 0.01 | 0.01 | 39 | 1022.0 |
| 20260503192455 | 73 | 60 | 1.0 | 4.0 | 0.00 | 0.01 | 0.01 | 41 | 1022.2 |
| 20260503191950 | 71 | 285 | 2.0 | 6.0 | 0.00 | 0.01 | 0.01 | 42 | 1022.4 |
| 20260503191448 | 72 | 314 | 0.0 | 6.0 | 0.00 | 0.01 | 0.01 | 41 | 1022.5 |
| 20260503190944 | 72 | 63 | 0.0 | 6.0 | 0.00 | 0.01 | 0.01 | 42 | 1022.5 |
| 20260503190442 | 71 | 229 | 3.0 | 7.0 | 0.00 | 0.01 | 0.01 | 42 | 1022.7 |
| 20260503185939 | 71 | 238 | 0.0 | 5.0 | 0.00 | 0.01 | 0.01 | 47 | 1022.8 |
| 20260503185435 | 72 | 255 | 3.0 | 5.0 | 0.00 | 0.01 | 0.01 | 44 | 1022.8 |
| 20260503184934 | 70 | 225 | 2.0 | 9.0 | 0.00 | 0.01 | 0.01 | 44 | 1023.0 |
| 20260503184431 | 71 | 73 | 0.0 | 3.0 | 0.00 | 0.01 | 0.01 | 44 | 1023.1 |
| 20260503183927 | 70 | 249 | 3.0 | 11.0 | 0.00 | 0.01 | 0.01 | 43 | 1023.3 |
| 20260503183424 | 70 | 258 | 2.0 | 6.0 | 0.00 | 0.01 | 0.01 | 44 | 1023.1 |
| 20260503182921 | 69 | 300 | 3.0 | 8.0 | 0.00 | 0.01 | 0.01 | 45 | 1023.4 |
| 20260503182420 | 69 | 226 | 6.0 | 6.0 | 0.00 | 0.01 | 0.01 | 45 | 1023.5 |
| 20260503181917 | 69 | 270 | 6.0 | 9.0 | 0.00 | 0.01 | 0.01 | 45 | 1023.4 |
| 20260503181414 | 69 | 70 | 3.0 | 8.0 | 0.00 | 0.01 | 0.01 | 43 | 1023.5 |
| 20260503180910 | 69 | 226 | 5.0 | 9.0 | 0.00 | 0.01 | 0.01 | 44 | 1023.7 |
| 20260503180408 | 70 | 305 | 6.0 | 6.0 | 0.00 | 0.01 | 0.01 | 43 | 1023.7 |
| 20260503175904 | 70 | 320 | 3.0 | 9.0 | 0.00 | 0.01 | 0.01 | 42 | 1023.8 |
| 20260503175403 | 70 | 263 | 4.0 | 6.0 | 0.00 | 0.01 | 0.01 | 46 | 1023.8 |
| 20260503174858 | 69 | 249 | 5.0 | 6.0 | 0.00 | 0.01 | 0.01 | 44 | 1023.8 |
| 20260503174356 | 69 | 199 | 3.0 | 12.0 | 0.00 | 0.01 | 0.01 | 43 | 1023.9 |
| 20260503173851 | 70 | 219 | 4.0 | 4.0 | 0.00 | 0.01 | 0.01 | 43 | 1023.7 |
| 20260503173347 | 68 | 293 | 4.0 | 6.0 | 0.00 | 0.01 | 0.01 | 41 | 1023.9 |
| 20260503172844 | 69 | 257 | 5.0 | 10.0 | 0.00 | 0.01 | 0.01 | 43 | 1023.8 |
| 20260503172342 | 69 | 236 | 9.0 | 11.0 | 0.00 | 0.01 | 0.01 | 42 | 1024.1 |
| 20260503171838 | 68 | 220 | 6.0 | 10.0 | 0.00 | 0.01 | 0.01 | 43 | 1023.8 |
| 20260503171335 | 68 | 205 | 10.0 | 10.0 | 0.00 | 0.01 | 0.01 | 41 | 1023.9 |
| 20260503170832 | 68 | 234 | 4.0 | 11.0 | 0.00 | 0.01 | 0.01 | 44 | 1024.0 |
| 20260503170329 | 68 | 226 | 6.0 | 7.0 | 0.00 | 0.01 | 0.01 | 44 | 1024.1 |
| 20260503150721 | 64 | 96 | 2.0 | 3.0 | 0.00 | 0.01 | 0.01 | 58 | 1024.8 |
| 20260503150217 | 63 | 37 | 0.0 | 5.0 | 0.00 | 0.01 | 0.01 | 60 | 1025.0 |
| 20260503140141 | 59 | 85 | 2.0 | 5.0 | 0.00 | 0.01 | 0.01 | 80 | 1024.4 |
| 20260503131111 | 55 | 61 | 2.0 | 3.0 | 0.00 | 0.01 | 0.01 | 99 | 1024.5 |
| 20260503130609 | 54 | 63 | 0.0 | 3.0 | 0.00 | 0.01 | 0.01 | 99 | 1024.3 |
| 20260503130106 | 53 | 71 | 3.0 | 3.0 | 0.00 | 0.01 | 0.01 | 99 | 1024.3 |
| 20260503110458 | 46 | 90 | 0.0 | 0.0 | 0.00 | 0.01 | 0.01 | 99 | 1023.3 |
| 20260503090350 | 48 | 278 | 0.0 | 0.0 | 0.00 | 0.00 | 0.00 | 99 | 1021.9 |
| 20260503081317 | 47 | 74 | 0.0 | 0.0 | 0.00 | 0.00 | 0.00 | 99 | 1021.5 |
| 20260503080814 | 48 | 66 | 0.0 | 1.0 | 0.00 | 0.00 | 0.00 | 99 | 1021.6 |
| 20260503080311 | 48 | 74 | 0.0 | 0.0 | 0.00 | 0.00 | 0.00 | 99 | 1021.6 |
| 20260503072747 | 50 | 157 | 0.0 | 1.0 | 0.00 | 0.00 | 0.00 | 99 | 1021.3 |
| 20260503072244 | 50 | 106 | 0.0 | 0.0 | 0.02 | 0.00 | 0.00 | 99 | 1021.2 |
| 20260503071740 | 49 | 106 | 0.0 | 0.0 | 0.00 | 0.00 | 0.00 | 99 | 1021.1 |
| 20260503071238 | 48 | 106 | 0.0 | 0.0 | 0.00 | 0.00 | 0.00 | 99 | 1021.2 |
| 20260503070734 | 49 | 106 | 0.0 | 0.0 | 0.00 | 0.00 | 0.00 | 99 | 1021.1 |
| 20260503070232 | 50 | 106 | 0.0 | 0.0 | 0.00 | 0.00 | 0.00 | 99 | 1021.1 |
| 20260503060151 | 52 | 291 | 0.0 | 2.0 | 0.00 | 0.00 | 0.00 | 99 | 1020.8 |
| 20260503054638 | 52 | 6 | 0.0 | 0.0 | 0.00 | 0.00 | 0.00 | 99 | 1020.6 |
| 20260503054135 | 52 | 286 | 0.0 | 0.0 | 0.00 | 0.00 | 0.00 | 99 | 1021.1 |
| 20260503053633 | 52 | 7 | 0.0 | 1.0 | 0.00 | 0.00 | 0.00 | 99 | 1020.5 |
| 20260503053132 | 52 | 270 | 0.0 | 0.0 | 0.00 | 0.00 | 0.00 | 99 | 1020.8 |
| 20260503052628 | 52 | 277 | 1.0 | 2.0 | 0.00 | 0.00 | 0.00 | 99 | 1020.8 |
| 20260503052124 | 52 | 82 | 0.0 | 0.0 | 0.00 | 0.00 | 0.00 | 99 | 1021.1 |
| 20260503051619 | 52 | 82 | 0.0 | 1.0 | 0.00 | 0.00 | 0.00 | 99 | 1020.6 |
| 20260503051118 | 52 | 90 | 0.0 | 0.0 | 0.00 | 0.00 | 0.00 | 99 | 1020.9 |
| 20260503050614 | 52 | 270 | 0.0 | 1.0 | 0.00 | 0.00 | 0.00 | 99 | 1020.8 |
| 20260503050111 | 52 | 66 | 0.0 | 2.0 | 0.00 | 0.00 | 0.00 | 99 | 1020.9 |
| 20260503045608 | 53 | 11 | 0.0 | 2.0 | 0.00 | 0.00 | 0.00 | 99 | 1021.0 |
| 20260503045105 | 53 | 15 | 0.0 | 1.0 | 0.00 | 0.00 | 0.00 | 99 | 1020.6 |
| 20260503044601 | 53 | 184 | 0.0 | 0.0 | 0.00 | 0.00 | 0.00 | 99 | 1020.6 |
| 20260503044059 | 53 | 184 | 0.0 | 0.0 | 0.00 | 0.00 | 0.00 | 99 | 1020.4 |
| 20260503043555 | 53 | 184 | 0.0 | 0.0 | 0.00 | 0.00 | 0.00 | 99 | 1020.6 |
| 20260503043052 | 53 | 184 | 0.0 | 0.0 | 0.00 | 0.00 | 0.00 | 99 | 1020.2 |
| 20260503042549 | 53 | 184 | 0.0 | 0.0 | 0.00 | 0.00 | 0.00 | 99 | 1020.1 |
| 20260503042045 | 54 | 184 | 0.0 | 2.0 | 0.00 | 0.00 | 0.00 | 99 | 1020.3 |
| 20260503041543 | 53 | 145 | 0.0 | 0.0 | 0.00 | 0.00 | 0.00 | 98 | 1020.4 |
| 20260503041040 | 53 | 145 | 0.0 | 0.0 | 0.00 | 0.00 | 0.00 | 98 | 1020.3 |